[[{"header":{"parameterUnit":"m.s-1","parameterCategory":1,"la1":30.2991,"la2":30.254,"lo1":-89.0895,"lo2":-89.0444,"dy":0.0017,"dx":0.0017,"nx":28,"ny":28,"refTime":"2025-08-03T09:00:00:Z","depth":0,"parameterNumber":2,"parameterNumberName":"U-component_of_WINDS"},"data":[0,0,0,0,0,0,0,0,0,0,0,0,0,0,0,0,0,0,0,0,0,0,0,0,0,0,0,0,0,0,0,0,0,0,0,0,0,0,0,0,0,0,0,0,0,0,0,0,0,0,0,0,0,0,0,0,0,0,-0.4284,-0.4285,0,-0.4304,-0.4304,-0.4304,-0.4244,-0.4242,-0.424,-0.4238,-0.4262,-0.4265,-0.4267,0,0,0,0,0,0,0,0,0,0,0,0,0,-0.4197,-0.4199,-0.4284,-0.4285,-0.4285,-0.4304,-0.4304,-0.4304,-0.4244,-0.4242,-0.4239,-0.4237,-0.4262,-0.4264,-0.4267,0,0,0,0,0,0,0,0,0,0,0,0,0,-0.4228,-0.42,-0.4284,-0.4257,-0.4255,-0.4304,-0.4304,-0.4304,-0.4244,-0.4242,-0.4239,-0.4236,-0.4261,-0.4264,-0.4268,-0.4346,0,0,-0.4279,-0.428,0,0,0,0,0,0,0,0,-0.4226,-0.4231,-0.4261,-0.4259,-0.4256,-0.4268,-0.4282,-0.4318,-0.4245,-0.4248,-0.4238,-0.4235,-0.4267,-0.427,-0.428,-0.4347,-0.4348,-0.4279,-0.4281,-0.4283,-0.4284,0,0,0,0,0,0,0,-0.4224,-0.423,-0.4292,-0.4261,-0.4259,-0.4244,-0.4246,-0.4289,-0.4273,-0.4248,-0.4244,-0.4246,-0.4265,-0.4276,-0.428,-0.4348,-0.4279,-0.4282,-0.4284,-0.4286,-0.4478,-0.4481,0,0,0,0,0,0,-0.4225,-0.4229,-0.4292,-0.4293,-0.4234,-0.4248,-0.425,-0.4267,-0.4273,-0.4271,-0.4249,-0.4244,-0.4272,-0.4276,-0.4281,-0.4371,-0.4283,-0.4286,-0.4288,-0.4475,-0.4478,-0.4482,0,0,0,0,0,0,-0.4224,-0.4231,-0.4291,-0.426,-0.4266,-0.4253,-0.4273,-0.4269,-0.428,-0.4273,-0.427,-0.4263,-0.427,-0.4276,-0.4329,-0.4371,-0.4288,-0.4291,-0.4471,-0.4476,-0.448,-0.4552,0,0,0,0,0,0,-0.4221,-0.4231,-0.426,-0.4261,-0.4268,-0.4339,-0.4276,-0.4272,-0.4286,-0.4279,-0.4286,-0.4284,-0.4268,-0.4324,-0.4333,-0.4374,-0.4294,-0.4468,-0.4473,-0.4479,-0.4546,-0.4559,-0.457,0,0,0,0,0,-0.4218,-0.4282,-0.4262,-0.427,-0.4304,-0.4341,-0.4345,-0.4324,-0.429,-0.4319,-0.4314,-0.4284,-0.4365,-0.433,-0.4339,-0.4382,-0.4465,-0.4472,-0.4478,-0.4541,-0.4556,-0.4569,0,0,0,0,0,0,-0.4289,-0.4281,-0.426,-0.4324,-0.4334,-0.4331,-0.4367,-0.4342,-0.4362,-0.4355,-0.4329,-0.4331,-0.4389,-0.4391,-0.4353,-0.4457,-0.4409,-0.4418,-0.4454,-0.4468,-0.4479,-0.4478,-0.4297,0,0,0,0,0,-0.4312,-0.4341,-0.4333,-0.4391,-0.4397,-0.4381,-0.4397,-0.4379,-0.4389,-0.4393,-0.4392,-0.4403,-0.443,-0.4449,-0.4474,-0.4546,-0.4546,-0.458,-0.4592,-0.4601,-0.4609,-0.4645,-0.466,-0.4504,-0.4504,-0.4503,0,0,-0.436,-0.4359,-0.438,-0.4405,-0.4411,-0.4442,-0.4385,-0.4422,-0.4446,-0.4399,-0.4448,-0.4448,-0.4459,-0.4521,-0.4549,-0.4525,-0.4652,-0.461,-0.4617,-0.462,-0.4654,-0.4669,-0.4682,-0.4508,-0.4507,-0.4507,0,0,-0.4463,-0.4466,-0.4513,-0.4519,-0.4526,-0.4515,-0.4526,-0.4527,-0.4524,-0.4573,-0.4538,-0.4566,-0.4615,-0.4623,-0.4633,-0.4737,-0.4709,-0.4746,-0.4807,-0.4842,-0.4855,-0.4865,-0.4901,-0.4915,-0.4754,-0.4754,-0.4754,0,-0.4523,-0.4568,-0.4542,-0.458,-0.4592,-0.4548,-0.4596,-0.4603,-0.462,-0.4629,-0.4601,-0.4659,-0.4663,-0.4726,-0.4751,-0.4761,-0.4773,-0.4745,-0.4855,-0.4865,-0.4875,-0.4909,-0.4923,-0.4758,-0.4758,-0.4757,-0.4757,0,-0.464,-0.4672,-0.4709,-0.4723,-0.4739,-0.4783,-0.4763,-0.4783,-0.4763,-0.4755,-0.4805,-0.4808,-0.4831,-0.4845,-0.4828,-0.4905,-0.4889,-0.4859,-0.481,-0.4895,-0.4926,-0.4939,-0.4765,-0.4763,-0.4762,-0.4761,0,0,-0.479,-0.4786,-0.4801,-0.4805,-0.4809,-0.4834,-0.4874,-0.4896,-0.4913,-0.4925,-0.4958,-0.4998,-0.4969,-0.4981,-0.4964,-0.4995,-0.5075,-0.496,-0.496,-0.4981,-0.5159,-0.5181,-0.5197,-0.5057,-0.5059,-0.5061,-0.5158,0,-0.4891,-0.4959,-0.4935,-0.5004,-0.5033,-0.4991,-0.5026,-0.5032,-0.5025,-0.5049,-0.5041,-0.507,-0.503,-0.5036,-0.5065,-0.5059,-0.511,-0.5052,-0.5087,-0.5089,-0.5085,-0.5213,-0.5238,-0.5329,-0.517,-0.5172,-0.5173,0,-0.5018,-0.5032,-0.5104,-0.51,-0.5111,-0.5143,-0.5159,-0.5183,-0.5189,-0.5181,-0.5193,-0.5169,-0.5208,-0.5159,-0.5213,-0.5174,-0.5186,-0.5185,-0.5188,-0.5191,-0.5136,-0.5219,-0.5358,-0.5371,-0.5193,-0.5191,-0.519,0,-0.5119,-0.5157,-0.5203,-0.5209,-0.5206,-0.5229,-0.523,-0.5232,-0.5246,-0.5261,-0.5269,-0.5289,-0.53,-0.5316,-0.5297,-0.5264,-0.5354,-0.5303,-0.5349,-0.5349,-0.537,-0.5369,-0.5512,-0.5379,-0.5379,-0.5379,-0.5379,0,-0.5234,-0.528,-0.5248,-0.5277,-0.5326,-0.5298,-0.5348,-0.5344,-0.5346,-0.5373,-0.5339,-0.5366,-0.534,-0.5364,-0.535,-0.5396,-0.5402,-0.5396,-0.5392,-0.5399,-0.54,-0.5407,-0.54,-0.5382,-0.5382,-0.5381,-0.538,0,-0.5356,-0.5337,-0.5385,-0.5377,-0.5376,-0.5412,-0.5406,-0.5433,-0.5422,-0.5457,-0.5464,-0.5447,-0.5474,-0.5456,-0.5485,-0.5475,-0.5534,-0.5522,-0.5532,-0.5528,-0.5573,-0.5569,-0.5727,-0.5745,-0.5601,-0.5603,-0.5604,0,-0.543,-0.5464,-0.5458,-0.5473,-0.5474,-0.5499,-0.5512,-0.5486,-0.55,-0.5508,-0.5533,-0.5556,-0.5573,-0.5618,-0.5609,-0.563,-0.5617,-0.567,-0.562,-0.5625,-0.5616,-0.5614,-0.5616,-0.5681,-0.5682,-0.5684,-0.5685,0,-0.5564,-0.5552,-0.5571,-0.5585,-0.5601,-0.5612,-0.562,-0.5635,-0.5608,-0.5626,-0.5651,-0.5664,-0.5691,-0.5714,-0.573,-0.5731,-0.5704,-0.5701,-0.5712,-0.5719,-0.5723,-0.572,-0.5559,-0.5697,-0.5696,-0.5695,-0.5695,-0.5694,-0.5664,-0.569,-0.5689,-0.5711,-0.5713,-0.5721,-0.5745,-0.5736,-0.5756,-0.5774,-0.5757,-0.5788,-0.5791,-0.5809,-0.5814,-0.5837,-0.5815,-0.5832,-0.5836,-0.584,-0.5846,-0.572,-0.584,-0.584,-0.5839,-0.5839,-0.5839,0,-0.5794,-0.5791,-0.581,-0.5821,-0.5838,-0.5808,-0.5815,-0.5831,-0.5858,-0.5862,-0.5879,-0.5907,-0.5929,-0.592,-0.5939,-0.596,-0.5947,-0.5966,-0.5964,-0.5964,-0.5865,-0.5853,-0.5975,-0.5975,-0.5975,-0.5975,-0.5975,-0.5975,-0.5864,-0.5906,-0.5894,-0.5937,-0.5934,-0.5961,-0.5968,-0.5975,-0.5977,-0.601,-0.6027,-0.602,-0.602,-0.6038,-0.6056,-0.6053,-0.6061,-0.6084,-0.6076,-0.5985,-0.5971,-0.5958,-0.5946,-0.6086,-0.6086,-0.6173,-0.6174,-0.6174]},{"header":{"parameterUnit":"m.s-1","parameterCategory":1,"la1":30.2991,"la2":30.254,"lo1":-89.0895,"lo2":-89.0444,"dy":0.0017,"dx":0.0017,"nx":28,"ny":28,"refTime":"2025-08-03T09:00:00:Z","depth":0,"parameterNumber":3,"parameterNumberName":"V-component_of_WINDS"},"data":[0,0,0,0,0,0,0,0,0,0,0,0,0,0,0,0,0,0,0,0,0,0,0,0,0,0,0,0,0,0,0,0,0,0,0,0,0,0,0,0,0,0,0,0,0,0,0,0,0,0,0,0,0,0,0,0,0,0,-1.9387,-1.9386,0,-1.929,-1.9289,-1.9288,-1.9235,-1.9235,-1.9235,-1.9235,-1.913,-1.9128,-1.9125,0,0,0,0,0,0,0,0,0,0,0,0,0,-1.9522,-1.952,-1.9388,-1.9386,-1.9385,-1.929,-1.9289,-1.9287,-1.9236,-1.9235,-1.9235,-1.9235,-1.9131,-1.9128,-1.9125,0,0,0,0,0,0,0,0,0,0,0,0,0,-1.9448,-1.9519,-1.9388,-1.9348,-1.9343,-1.929,-1.9289,-1.9287,-1.9236,-1.9235,-1.9235,-1.9235,-1.9132,-1.9128,-1.9124,-1.9102,0,0,-1.9112,-1.911,0,0,0,0,0,0,0,0,-1.9452,-1.9443,-1.9355,-1.9351,-1.9345,-1.9275,-1.9298,-1.9225,-1.9236,-1.9276,-1.9235,-1.9235,-1.9178,-1.917,-1.9152,-1.9097,-1.9093,-1.9112,-1.9109,-1.9107,-1.9106,0,0,0,0,0,0,0,-1.9457,-1.9447,-1.9349,-1.9354,-1.9348,-1.9332,-1.9322,-1.9284,-1.9229,-1.9273,-1.9269,-1.9258,-1.9176,-1.9156,-1.9149,-1.9091,-1.9112,-1.9108,-1.9106,-1.9104,-1.9008,-1.9008,0,0,0,0,0,0,-1.947,-1.9451,-1.9352,-1.9346,-1.94,-1.933,-1.9318,-1.9298,-1.9229,-1.9219,-1.9258,-1.9256,-1.9163,-1.9154,-1.9146,-1.9112,-1.9107,-1.9104,-1.9101,-1.9008,-1.9008,-1.9008,0,0,0,0,0,0,-1.9473,-1.9461,-1.9356,-1.9397,-1.9383,-1.9328,-1.9305,-1.9296,-1.9276,-1.9219,-1.9208,-1.9249,-1.9163,-1.9151,-1.9113,-1.9108,-1.9102,-1.9098,-1.9008,-1.9008,-1.9008,-1.9047,0,0,0,0,0,0,-1.9477,-1.9463,-1.9456,-1.9398,-1.9381,-1.9327,-1.9305,-1.9294,-1.927,-1.9266,-1.9207,-1.9197,-1.9162,-1.9119,-1.9109,-1.9102,-1.9095,-1.9008,-1.9008,-1.9008,-1.9046,-1.9048,-1.905,0,0,0,0,0,-1.9482,-1.947,-1.9456,-1.9444,-1.9371,-1.9327,-1.9317,-1.9278,-1.927,-1.9261,-1.9223,-1.9199,-1.911,-1.9115,-1.9103,-1.9096,-1.9008,-1.9008,-1.9008,-1.9045,-1.9048,-1.905,0,0,0,0,0,0,-1.9528,-1.9462,-1.9445,-1.9415,-1.9377,-1.9318,-1.9306,-1.9283,-1.9245,-1.9243,-1.9194,-1.9181,-1.9146,-1.9117,-1.9124,-1.9068,-1.9056,-1.9054,-1.9089,-1.9091,-1.9093,-1.91,-1.9092,0,0,0,0,0,-1.9536,-1.9507,-1.945,-1.9429,-1.9411,-1.9362,-1.9341,-1.9314,-1.9272,-1.9255,-1.9215,-1.9173,-1.9135,-1.9111,-1.9074,-1.9041,-1.9025,-1.9029,-1.9032,-1.9034,-1.9031,-1.9008,-1.9008,-1.9007,-1.9007,-1.9007,0,0,-1.9549,-1.951,-1.9494,-1.9437,-1.9404,-1.9373,-1.9349,-1.9318,-1.9293,-1.925,-1.9211,-1.9179,-1.9129,-1.9093,-1.9074,-1.9067,-1.9028,-1.9033,-1.9035,-1.9032,-1.9008,-1.9008,-1.9008,-1.9007,-1.9007,-1.9007,0,0,-1.9558,-1.9527,-1.9504,-1.9472,-1.9423,-1.939,-1.9384,-1.9328,-1.9305,-1.9266,-1.9231,-1.92,-1.9137,-1.9102,-1.9076,-1.9068,-1.9043,-1.9057,-1.9067,-1.9045,-1.9045,-1.9045,-1.9039,-1.9038,-1.9055,-1.9055,-1.9055,0,-1.9581,-1.9535,-1.9495,-1.9465,-1.9439,-1.9399,-1.9374,-1.9344,-1.9285,-1.9266,-1.9259,-1.9177,-1.9141,-1.9093,-1.9091,-1.9072,-1.9062,-1.9063,-1.9049,-1.9048,-1.9047,-1.9041,-1.9039,-1.9057,-1.9057,-1.9056,-1.9056,0,-1.9564,-1.9532,-1.952,-1.9464,-1.9436,-1.9409,-1.9362,-1.9339,-1.9313,-1.928,-1.9237,-1.9192,-1.9143,-1.913,-1.9105,-1.9077,-1.9074,-1.9059,-1.9046,-1.905,-1.9043,-1.9041,-1.9059,-1.9059,-1.9058,-1.9058,0,0,-1.9601,-1.9522,-1.9518,-1.949,-1.9432,-1.9405,-1.9374,-1.9327,-1.9306,-1.9266,-1.9236,-1.9182,-1.9167,-1.9137,-1.9107,-1.9088,-1.908,-1.9074,-1.9072,-1.9074,-1.9043,-1.9054,-1.9052,-1.9063,-1.9063,-1.9062,-1.9046,0,-1.96,-1.9545,-1.9507,-1.9465,-1.9433,-1.9393,-1.9365,-1.9325,-1.9292,-1.9258,-1.9221,-1.9182,-1.9166,-1.9147,-1.9126,-1.9086,-1.9073,-1.9086,-1.9032,-1.9031,-1.9045,-1.9049,-1.9062,-1.9049,-1.9044,-1.9043,-1.9043,0,-1.9593,-1.9553,-1.9509,-1.9451,-1.9436,-1.9413,-1.9364,-1.9333,-1.9284,-1.9261,-1.9227,-1.9196,-1.9158,-1.9149,-1.9093,-1.9103,-1.9078,-1.9055,-1.9053,-1.9046,-1.9037,-1.904,-1.9045,-1.9042,-1.9039,-1.9039,-1.904,0,-1.9621,-1.9557,-1.9522,-1.95,-1.9432,-1.9415,-1.9386,-1.9337,-1.931,-1.9267,-1.9248,-1.9201,-1.9175,-1.9137,-1.9092,-1.909,-1.904,-1.9028,-1.9018,-1.9019,-1.9009,-1.901,-1.9008,-1.8995,-1.8995,-1.8996,-1.8996,0,-1.9623,-1.9597,-1.9533,-1.9511,-1.9479,-1.9433,-1.9402,-1.9369,-1.9325,-1.9294,-1.9256,-1.9226,-1.917,-1.9132,-1.9097,-1.9055,-1.9044,-1.9022,-1.9012,-1.9024,-1.9027,-1.9007,-1.9006,-1.8995,-1.8995,-1.8995,-1.8995,0,-1.9649,-1.9606,-1.9564,-1.9503,-1.9486,-1.9465,-1.9411,-1.9386,-1.9351,-1.9311,-1.9299,-1.9242,-1.9196,-1.9147,-1.9085,-1.906,-1.9018,-1.9007,-1.9036,-1.903,-1.9021,-1.9022,-1.9005,-1.8999,-1.8993,-1.8993,-1.8993,0,-1.9653,-1.9632,-1.9568,-1.9545,-1.9516,-1.948,-1.9451,-1.9404,-1.9376,-1.9317,-1.9298,-1.925,-1.9208,-1.9135,-1.9086,-1.9037,-1.9022,-1.9019,-1.9014,-1.9026,-1.9019,-1.902,-1.9016,-1.9021,-1.9022,-1.9022,-1.9022,0,-1.9663,-1.9642,-1.9605,-1.9558,-1.9526,-1.9487,-1.9446,-1.9428,-1.9372,-1.9342,-1.9295,-1.9262,-1.9197,-1.9148,-1.9092,-1.9058,-1.9029,-1.9024,-1.9018,-1.903,-1.9047,-1.9035,-1.9039,-1.9024,-1.9024,-1.9024,-1.9024,-1.9024,-1.9677,-1.9655,-1.9606,-1.9564,-1.9528,-1.949,-1.9463,-1.9423,-1.9384,-1.9328,-1.9302,-1.9254,-1.9201,-1.9124,-1.909,-1.9049,-1.9041,-1.9034,-1.9032,-1.903,-1.9032,-1.9054,-1.9039,-1.9039,-1.9039,-1.9039,-1.9039,0,-1.9683,-1.9649,-1.9611,-1.9555,-1.9521,-1.9498,-1.9451,-1.9423,-1.9382,-1.9336,-1.9296,-1.9239,-1.919,-1.9137,-1.9084,-1.9061,-1.9046,-1.9049,-1.9049,-1.9041,-1.9044,-1.9053,-1.9061,-1.9061,-1.9061,-1.9061,-1.9061,-1.9061,-1.9682,-1.9643,-1.9616,-1.9557,-1.9522,-1.9476,-1.945,-1.9413,-1.9376,-1.9316,-1.9275,-1.9241,-1.9191,-1.9134,-1.9086,-1.9071,-1.9053,-1.9058,-1.9039,-1.9043,-1.9041,-1.904,-1.9048,-1.9055,-1.9055,-1.904,-1.904,-1.904]}]]